Flag for U.S.A. Weather past 2 weeks in Topeka, Kansas, U.S.A.

Now
32 °F

Low clouds.


Feels Like: 29 °F
Forecast: 30 / 35 °F
Wind: 3 mph from Southeast

Location: Philip Billard Municipal Airport

Current Time: Dec 19, 2014 at 3:04:54 AM

Latest Report: Dec 19, 2014 at 1:53 AM


Visibility: 10 mi

Pressure: 30.29 "Hg

Humidity: 88%

Dew point: 29 °F

Location of TopekaLocation

Historic Weather in Topeka — Graph

°F

Topeka temperature yesterday

Maximum temperature yesterday: 34 °F (at 1:53 PM)
Minimum temperature yesterday: 29 °F (at 12:53 AM)
Average temperature yesterday: 31 °F

Past Weeks' High & Low Weather Summary

 TemperatureHumidityPressure
High61 °F (Dec 14, 1:53 PM)100% (Dec 5, 7:53 AM)30.58 "Hg (Dec 5, 7:53 AM)
Low24 °F (Dec 17, 5:53 AM)42% (Dec 8, 3:53 PM)29.53 "Hg (Dec 15, 5:53 AM)
Average40 °F85%30.21 "Hg
* Reported Dec 4 1:53 AM — Dec 19 1:53 AM, Topeka, Weather by CustomWeather, © 2014

Note: Actual official high and low records may vary slightly from our data, if they occured in-between our weather recording intervals... More about our weather records

Advertising

Topeka weather history for previous 24 hours

 ConditionsComfort  
Time TempWeatherWind HumidityBarometerVisibility
1:53 AM
Dec 19
32 °FLow clouds.3 mph88%30.29 "Hg10 mi
12:53 AM33 °FLow clouds.No wind85%30.29 "Hg10 mi
11:53 PM
Dec 18
33 °FLow clouds.5 mph85%30.30 "Hg10 mi
10:53 PM33 °FOvercast.No wind88%30.29 "Hg8 mi
9:53 PM33 °FOvercast.3 mph82%30.28 "Hg10 mi
8:53 PM33 °FOvercast.No wind85%30.28 "Hg10 mi
7:53 PM33 °FOvercast.3 mph85%30.27 "Hg10 mi
6:53 PM33 °FLow clouds.3 mph85%30.26 "Hg9 mi
5:53 PM33 °FOvercast.5 mph85%30.24 "Hg9 mi
5:01 PM33 °FFog.6 mph88%30.21 "Hg6 mi
3:53 PM33 °FFog.5 mph88%30.23 "Hg6 mi
2:53 PM34 °FLow clouds.No wind85%30.22 "Hg7 mi
1:53 PM34 °FFog.No wind85%30.22 "Hg5 mi
12:53 PM33 °FFog.No wind88%30.24 "Hg6 mi
11:53 AM32 °FIce fog.No wind92%30.25 "Hg2 mi
10:53 AM32 °FIce fog.No wind85%30.28 "Hg4 mi
9:53 AM32 °FIce fog.5 mph85%30.27 "Hg6 mi
8:53 AM30 °FIce fog.5 mph92%30.26 "Hg2 mi
7:53 AM30 °FLight snow. Ice fog.3 mph92%30.24 "Hg1 mi
7:02 AM30 °FLight snow. Ice fog.5 mph89%30.22 "Hg2 mi
6:53 AM30 °FLight snow. Ice fog.5 mph89%30.24 "Hg2 mi
5:53 AM29 °FLight snow. Ice fog.6 mph93%30.23 "Hg2 mi
4:53 AM29 °FLight snow. Ice fog.7 mph93%30.22 "Hg2 mi
4:03 AM29 °FLight snow. Ice fog.7 mph93%30.21 "Hg1 mi
3:57 AM29 °FLight snow. Ice fog.8 mph93%30.21 "Hg2 mi
Weather by CustomWeather, © 2014

See weather overviewHow to use our weather pages